Hot Springs, VA

6:51 PM EDT on March 23, 2017 (GMT -0400)
Ingalls

Weather History for KHSP - December, 2004

Change the Weather History Date:

Tuesday, December 28, 2004

  Actual Average Record
Temperature  
Mean Temperature 26 °F -  
Max Temperature 37 °F 33 °F 57 °F (2008)
Min Temperature 14 °F 20 °F 8 °F (2000)
Degree Days  
Heating Degree Days 40    
Moisture  
Dew Point 3 °F    
Average Humidity 32    
Maximum Humidity 62    
Minimum Humidity 17    
Precipitation  
Precipitation 0.00 in - - ()
Sea Level Pressure  
Sea Level Pressure 30.36 in    
Wind  
Wind Speed 10 mph (WSW)    
Max Wind Speed 21 mph    
Max Gust Speed 28 mph    
Visibility 10 miles    
Events      
Averages and records for this station are not official NWS values.
T = Trace of Precipitation, MM = Missing Value Source: NWS Daily Summary

Daily Weather History Graph

Daily Weather History Graph

Search for Another Location

Airport or City:

Trip Planner

Search our weather history database for the weather conditions in past years. The results will help you decide how hot, cold, wet, or windy it might be!

Date:

Astronomy

Dec. 28, 2004 Rise Set
Actual Time 7:34 AM EST 5:07 PM EST
Civil Twilight 7:05 AM EST 5:37 PM EST
Nautical Twilight 6:32 AM EST 6:10 PM EST
Astronomical Twilight 6:00 AM EST 6:42 PM EST
Moon 6:53 PM EST (12/28) 9:23 AM EST (12/28)
Length of Visible Light 10h 32m
Length of Day
9h 33m
Waning Gibbous, 96% of the Moon is Illuminated
Dec 28
Waning Gibbous
Jan 3
Last Quarter
Jan 10
New
Jan 17
First Quarter
Jan 25
Full

Hourly Weather History & Observations

Time (EST) Temp. Windchill Dew Point Humidity Pressure Visibility Wind Dir Wind Speed Gust Speed Precip Events Conditions
12:00 AM 14.0 °F 8.2 °F 1.4 °F 57% 30.44 in 10.0 mi West 3.5 mph - N/A   Clear
12:20 AM 14.0 °F 6.5 °F 3.2 °F 62% 30.43 in 10.0 mi West 4.6 mph - N/A   Clear
1:00 AM 15.8 °F 7.2 °F 1.4 °F 53% 30.42 in 10.0 mi West 5.8 mph - N/A   Clear
1:20 AM 15.8 °F 8.6 °F -0.4 °F 49% 30.42 in 10.0 mi WSW 4.6 mph - N/A   Clear
2:00 AM 17.6 °F - -2.2 °F 42% 30.42 in 10.0 mi Calm Calm - N/A   Clear
2:20 AM 17.6 °F - -2.2 °F 42% 30.42 in 10.0 mi Calm Calm - N/A   Clear
3:00 AM 19.4 °F 8.6 °F -2.2 °F 39% 30.43 in 10.0 mi South 9.2 mph - N/A   Clear
3:20 AM 21.2 °F 11.7 °F -0.4 °F 39% 30.42 in 10.0 mi South 8.1 mph - N/A   Clear
3:40 AM 21.2 °F 13.6 °F -2.2 °F 36% 30.42 in 10.0 mi SSW 5.8 mph - N/A   Clear
4:00 AM 19.4 °F 11.5 °F -5.8 °F 33% 30.41 in 10.0 mi SSW 5.8 mph - N/A   Clear
4:20 AM 21.2 °F 14.9 °F -5.8 °F 30% 30.41 in 10.0 mi SW 4.6 mph - N/A   Clear
5:00 AM 21.2 °F 10.1 °F -5.8 °F 30% 30.41 in 10.0 mi WSW 10.4 mph - N/A   Clear
6:00 AM 24.8 °F 13.4 °F -5.8 °F 26% 30.41 in 10.0 mi WSW 12.7 mph - N/A   Clear
6:20 AM 24.8 °F 12.9 °F -5.8 °F 26% 30.42 in 10.0 mi WSW 13.8 mph - N/A   Clear
7:00 AM 24.8 °F 12.9 °F -7.6 °F 24% 30.42 in 10.0 mi WSW 13.8 mph - N/A   Clear
7:20 AM 24.8 °F 12.4 °F -9.4 °F 22% 30.42 in 10.0 mi WSW 15.0 mph - N/A   Clear
8:00 AM 26.6 °F 15.7 °F -7.6 °F 22% 30.43 in 10.0 mi WSW 12.7 mph - N/A   Clear
9:00 AM 28.4 °F 17.5 °F -5.8 °F 23% 30.44 in 10.0 mi WSW 13.8 mph - N/A   Clear
9:20 AM 32.0 °F 22.1 °F -2.2 °F 23% 30.43 in 10.0 mi WSW 13.8 mph - N/A   Clear
9:40 AM 33.8 °F 24.3 °F -2.2 °F 22% 30.44 in 10.0 mi WSW 13.8 mph - N/A   Clear
10:00 AM 33.8 °F 24.3 °F -4.0 °F 20% 30.43 in 10.0 mi WSW 13.8 mph 17.3 mph N/A   Clear
10:20 AM 33.8 °F 24.8 °F -5.8 °F 18% 30.43 in 10.0 mi WSW 12.7 mph - N/A   Clear
11:00 AM 35.6 °F 26.2 °F -5.8 °F 17% 30.43 in 10.0 mi WSW 15.0 mph - N/A   Clear
11:20 AM 33.8 °F 23.5 °F -5.8 °F 18% 30.42 in 10.0 mi WSW 16.1 mph - N/A   Clear
11:40 AM 35.6 °F 26.2 °F -5.8 °F 17% 30.41 in 10.0 mi WSW 15.0 mph - N/A   Clear
12:00 PM 33.8 °F 23.9 °F -5.8 °F 18% 30.40 in 10.0 mi WSW 15.0 mph - N/A   Clear
12:20 PM 33.8 °F 23.5 °F -4.0 °F 20% 30.40 in 10.0 mi WSW 16.1 mph - N/A   Clear
1:00 PM 35.6 °F 26.2 °F 1.4 °F 24% 30.36 in 10.0 mi WSW 15.0 mph 19.6 mph N/A   Clear
1:20 PM 35.6 °F 26.6 °F 3.2 °F 26% 30.35 in 10.0 mi West 13.8 mph - N/A   Clear
2:00 PM 35.6 °F 26.2 °F 5.0 °F 28% 30.34 in 10.0 mi West 15.0 mph 20.7 mph N/A   Clear
2:20 PM 35.6 °F 26.2 °F 6.8 °F 30% 30.33 in 10.0 mi West 15.0 mph - N/A   Clear
2:40 PM 35.6 °F 25.9 °F 6.8 °F 30% 30.32 in 10.0 mi WSW 16.1 mph - N/A   Clear
3:00 PM 35.6 °F 25.9 °F 6.8 °F 30% 30.31 in 10.0 mi WSW 16.1 mph - N/A   Clear
3:20 PM 37.4 °F 29.3 °F 8.6 °F 30% 30.31 in 10.0 mi West 12.7 mph 18.4 mph N/A   Clear
3:40 PM 37.4 °F 28.2 °F 8.6 °F 30% 30.31 in 10.0 mi West 16.1 mph 21.9 mph N/A   Clear
4:00 PM 37.4 °F 28.9 °F 8.6 °F 30% 30.31 in 10.0 mi West 13.8 mph - N/A   Clear
4:20 PM 35.6 °F 26.2 °F 8.6 °F 33% 30.31 in 10.0 mi West 15.0 mph 20.7 mph N/A   Clear
4:40 PM 35.6 °F 26.2 °F 8.6 °F 33% 30.31 in 10.0 mi West 15.0 mph - N/A   Clear
5:00 PM 35.6 °F 26.2 °F 8.6 °F 33% 30.31 in 10.0 mi West 15.0 mph - N/A   Clear
5:20 PM 35.6 °F 26.6 °F 8.6 °F 33% 30.31 in 10.0 mi West 13.8 mph - N/A   Clear
5:40 PM 35.6 °F 27.5 °F 8.6 °F 33% 30.32 in 10.0 mi West 11.5 mph - N/A   Clear
6:00 PM 33.8 °F 24.8 °F 8.6 °F 35% 30.31 in 10.0 mi WSW 12.7 mph - N/A   Clear
6:20 PM 33.8 °F 24.3 °F 10.4 °F 38% 30.31 in 10.0 mi WSW 13.8 mph - N/A   Clear
6:40 PM 33.8 °F 24.8 °F 10.4 °F 38% 30.31 in 10.0 mi WSW 12.7 mph - N/A   Clear
7:00 PM 35.6 °F 27.5 °F 12.2 °F 38% 30.31 in 10.0 mi WSW 11.5 mph - N/A   Clear
7:20 PM 35.6 °F 27.1 °F 12.2 °F 38% 30.31 in 10.0 mi WSW 12.7 mph - N/A   Clear
8:00 PM 35.6 °F 25.2 °F 12.2 °F 38% 30.30 in 10.0 mi WSW 18.4 mph - N/A   Clear
8:20 PM 35.6 °F 25.2 °F 12.2 °F 38% 30.30 in 10.0 mi WSW 18.4 mph - N/A   Clear
8:40 PM 35.6 °F 25.2 °F 12.2 °F 38% 30.29 in 10.0 mi WSW 18.4 mph 23.0 mph N/A   Clear
9:00 PM 35.6 °F 25.2 °F 14.0 °F 41% 30.29 in 10.0 mi WSW 18.4 mph 24.2 mph N/A   Clear
9:20 PM 35.6 °F 25.2 °F 12.2 °F 38% 30.28 in 10.0 mi WSW 18.4 mph 24.2 mph N/A   Clear
10:00 PM 35.6 °F 24.5 °F 12.2 °F 38% 30.27 in 10.0 mi WSW 20.7 mph 26.5 mph N/A   Clear
10:20 PM 35.6 °F 24.8 °F 12.2 °F 38% 30.27 in 10.0 mi WSW 19.6 mph - N/A   Clear
10:40 PM 35.6 °F 24.8 °F 12.2 °F 38% 30.27 in 10.0 mi WSW 19.6 mph 25.3 mph N/A   Clear
11:00 PM 35.6 °F 24.8 °F 10.4 °F 35% 30.27 in 10.0 mi West 19.6 mph 25.3 mph N/A   Clear
11:20 PM 35.6 °F 24.8 °F 10.4 °F 35% 30.26 in 10.0 mi West 19.6 mph 25.3 mph N/A   Clear
11:40 PM 35.6 °F 25.2 °F 10.4 °F 35% 30.26 in 10.0 mi West 18.4 mph 27.6 mph N/A   Clear